Time,TemperatureF,DewpointF,PressureIn,WindDirection,WindDirectionDegrees,WindSpeedMPH,WindSpeedGustMPH,Humidity,HourlyPrecipIn,Conditions,Clouds,dailyrainin,SoftwareType,DateUTC
2013-04-28 00:02:00,58.8,47.5,29.96,West,264,9.0,12.0,66,0.00,,,0.00,meteohub,2013-04-28 05:02:00,
2013-04-28 00:07:00,58.8,47.1,29.96,WSW,249,3.0,12.0,65,0.00,,,0.00,meteohub,2013-04-28 05:07:00,
2013-04-28 00:12:00,58.6,46.9,29.96,WSW,249,13.0,14.0,65,0.00,,,0.00,meteohub,2013-04-28 05:12:00,
2013-04-28 00:17:00,58.6,46.9,29.96,WSW,253,6.0,14.0,65,0.00,,,0.00,meteohub,2013-04-28 05:17:00,
2013-04-28 00:22:00,58.6,46.9,29.96,West,268,5.0,14.0,65,0.00,,,0.00,meteohub,2013-04-28 05:22:00,
2013-04-28 00:27:00,58.5,46.8,29.96,West,265,5.0,15.0,65,0.00,,,0.00,meteohub,2013-04-28 05:27:00,
2013-04-28 00:32:00,58.3,46.6,29.95,West,269,7.0,15.0,65,0.00,,,0.00,meteohub,2013-04-28 05:32:00,
2013-04-28 00:37:00,58.3,46.6,29.95,WSW,255,0.0,14.0,65,0.00,,,0.00,meteohub,2013-04-28 05:37:00,
2013-04-28 00:42:00,57.9,46.6,29.95,West,259,8.0,14.0,66,0.00,,,0.00,meteohub,2013-04-28 05:42:00,
2013-04-28 00:47:00,57.7,46.4,29.95,West,276,10.0,14.0,66,0.00,,,0.00,meteohub,2013-04-28 05:47:00,
2013-04-28 00:52:00,57.6,46.2,29.95,West,269,10.0,13.0,66,0.00,,,0.00,meteohub,2013-04-28 05:52:00,
2013-04-28 00:57:00,57.4,46.0,29.95,West,267,6.0,13.0,66,0.00,,,0.00,meteohub,2013-04-28 05:57:00,
2013-04-28 01:02:00,57.2,46.4,29.95,WSW,244,6.0,13.0,67,0.00,,,0.00,meteohub,2013-04-28 06:02:00,
2013-04-28 01:07:00,57.0,46.2,29.95,West,260,9.0,13.0,67,0.00,,,0.00,meteohub,2013-04-28 06:07:00,
2013-04-28 01:12:00,56.8,46.0,29.94,SW,236,6.0,12.0,67,0.00,,,0.00,meteohub,2013-04-28 06:12:00,
2013-04-28 01:17:00,56.7,46.2,29.95,West,276,11.0,12.0,68,0.00,,,0.00,meteohub,2013-04-28 06:17:00,
2013-04-28 01:22:00,56.7,46.2,29.94,WSW,246,14.0,14.0,68,0.00,,,0.00,meteohub,2013-04-28 06:22:00,
2013-04-28 01:27:00,56.7,46.2,29.94,West,261,5.0,17.0,68,0.00,,,0.00,meteohub,2013-04-28 06:27:00,
2013-04-28 01:32:00,56.5,46.0,29.94,West,266,8.0,17.0,68,0.00,,,0.00,meteohub,2013-04-28 06:32:00,
2013-04-28 01:37:00,56.3,45.9,29.94,WSW,252,9.0,17.0,68,0.00,,,0.00,meteohub,2013-04-28 06:37:00,
2013-04-28 01:42:00,56.1,45.7,29.94,WSW,257,7.0,16.0,68,0.00,,,0.00,meteohub,2013-04-28 06:42:00,
2013-04-28 01:47:00,56.1,45.7,29.94,WSW,252,6.0,16.0,68,0.00,,,0.00,meteohub,2013-04-28 06:47:00,
2013-04-28 01:52:00,55.9,45.9,29.94,WSW,249,5.0,16.0,69,0.00,,,0.00,meteohub,2013-04-28 06:52:00,
2013-04-28 01:57:00,55.8,45.7,29.94,West,263,5.0,15.0,69,0.00,,,0.00,meteohub,2013-04-28 06:57:00,
2013-04-28 02:02:00,55.8,45.7,29.94,WSW,252,4.0,13.0,69,0.00,,,0.00,meteohub,2013-04-28 07:02:00,
2013-04-28 02:07:00,55.6,46.0,29.94,West,273,7.0,13.0,70,0.00,,,0.00,meteohub,2013-04-28 07:07:00,
2013-04-28 02:12:00,55.0,45.5,29.94,West,261,11.0,12.0,70,0.00,,,0.00,meteohub,2013-04-28 07:12:00,
2013-04-28 02:17:00,55.0,45.9,29.94,WNW,290,7.0,13.0,71,0.00,,,0.00,meteohub,2013-04-28 07:17:00,
2013-04-28 02:22:00,54.9,46.0,29.94,WSW,257,3.0,13.0,72,0.00,,,0.00,meteohub,2013-04-28 07:22:00,
2013-04-28 02:27:00,54.7,45.9,29.94,WSW,257,5.0,15.0,72,0.00,,,0.00,meteohub,2013-04-28 07:27:00,
2013-04-28 02:32:00,54.7,45.9,29.94,WSW,255,9.0,15.0,72,0.00,,,0.00,meteohub,2013-04-28 07:32:00,
2013-04-28 02:37:00,54.5,45.7,29.94,West,272,6.0,15.0,72,0.00,,,0.00,meteohub,2013-04-28 07:37:00,
2013-04-28 02:42:00,54.3,45.9,29.94,WSW,256,9.0,14.0,73,0.00,,,0.00,meteohub,2013-04-28 07:42:00,
2013-04-28 02:47:00,54.1,45.7,29.94,West,274,5.0,14.0,73,0.00,,,0.00,meteohub,2013-04-28 07:47:00,
2013-04-28 02:52:00,54.0,45.5,29.94,West,271,7.0,14.0,73,0.00,,,0.00,meteohub,2013-04-28 07:52:00,
2013-04-28 02:57:00,54.0,45.9,29.94,West,279,5.0,14.0,74,0.00,,,0.00,meteohub,2013-04-28 07:57:00,
2013-04-28 03:02:00,53.8,45.7,29.94,WSW,254,9.0,14.0,74,0.00,,,0.00,meteohub,2013-04-28 08:02:00,
2013-04-28 03:07:00,53.8,46.0,29.94,WSW,254,7.0,16.0,75,0.00,,,0.00,meteohub,2013-04-28 08:07:00,
2013-04-28 03:12:00,53.8,45.7,29.94,West,273,6.0,17.0,74,0.00,,,0.00,meteohub,2013-04-28 08:12:00,
2013-04-28 03:17:00,53.8,46.0,29.94,WSW,254,6.0,17.0,75,0.00,,,0.00,meteohub,2013-04-28 08:17:00,
2013-04-28 03:22:00,53.6,45.9,29.94,WNW,296,11.0,17.0,75,0.00,,,0.00,meteohub,2013-04-28 08:22:00,
2013-04-28 03:27:00,53.4,46.0,29.94,WNW,300,13.0,14.0,76,0.00,,,0.00,meteohub,2013-04-28 08:27:00,
2013-04-28 03:32:00,53.4,46.0,29.93,West,280,8.0,17.0,76,0.00,,,0.00,meteohub,2013-04-28 08:32:00,
2013-04-28 03:37:00,53.2,45.9,29.93,West,265,14.0,17.0,76,0.00,,,0.00,meteohub,2013-04-28 08:37:00,
2013-04-28 03:42:00,53.2,45.9,29.93,West,281,10.0,17.0,76,0.00,,,0.00,meteohub,2013-04-28 08:42:00,
2013-04-28 03:47:00,53.1,45.7,29.93,West,269,7.0,16.0,76,0.00,,,0.00,meteohub,2013-04-28 08:47:00,
2013-04-28 03:52:00,53.1,45.7,29.93,WSW,241,11.0,16.0,76,0.00,,,0.00,meteohub,2013-04-28 08:52:00,
2013-04-28 03:57:00,53.1,45.7,29.92,West,264,5.0,15.0,76,0.00,,,0.00,meteohub,2013-04-28 08:57:00,
2013-04-28 04:02:00,52.9,45.5,29.93,West,264,10.0,15.0,76,0.00,,,0.00,meteohub,2013-04-28 09:02:00,
2013-04-28 04:07:00,52.9,45.9,29.92,West,264,6.0,15.0,77,0.00,,,0.00,meteohub,2013-04-28 09:07:00,
2013-04-28 04:12:00,52.5,45.5,29.92,WSW,248,7.0,15.0,77,0.00,,,0.00,meteohub,2013-04-28 09:12:00,
2013-04-28 04:17:00,52.5,45.5,29.92,West,274,6.0,13.0,77,0.00,,,0.00,meteohub,2013-04-28 09:17:00,
2013-04-28 04:22:00,52.3,45.3,29.93,West,270,5.0,13.0,77,0.00,,,0.00,meteohub,2013-04-28 09:22:00,
2013-04-28 04:27:00,52.2,45.5,29.92,West,265,6.0,11.0,78,0.00,,,0.00,meteohub,2013-04-28 09:27:00,
2013-04-28 04:32:00,52.2,45.5,29.92,West,261,6.0,12.0,78,0.00,,,0.00,meteohub,2013-04-28 09:32:00,
2013-04-28 04:37:00,52.0,45.3,29.92,WSW,246,5.0,12.0,78,0.00,,,0.00,meteohub,2013-04-28 09:37:00,
2013-04-28 04:42:00,52.0,45.3,29.92,West,273,5.0,12.0,78,0.00,,,0.00,meteohub,2013-04-28 09:42:00,
2013-04-28 04:47:00,51.6,45.3,29.92,West,266,5.0,13.0,79,0.00,,,0.00,meteohub,2013-04-28 09:47:00,
2013-04-28 04:52:00,51.6,45.3,29.92,West,261,6.0,13.0,79,0.00,,,0.00,meteohub,2013-04-28 09:52:00,
2013-04-28 04:57:00,51.4,45.1,29.92,West,278,8.0,13.0,79,0.00,,,0.00,meteohub,2013-04-28 09:57:00,
2013-04-28 05:02:00,51.4,45.1,29.91,West,264,5.0,12.0,79,0.00,,,0.00,meteohub,2013-04-28 10:02:00,
2013-04-28 05:07:00,51.4,45.1,29.91,West,271,8.0,11.0,79,0.00,,,0.00,meteohub,2013-04-28 10:07:00,
2013-04-28 05:12:00,51.3,45.0,29.91,WSW,254,5.0,11.0,79,0.00,,,0.00,meteohub,2013-04-28 10:12:00,
2013-04-28 05:17:00,51.3,45.0,29.91,West,268,7.0,12.0,79,0.00,,,0.00,meteohub,2013-04-28 10:17:00,
2013-04-28 05:22:00,51.1,45.1,29.92,WSW,257,5.0,12.0,80,0.00,,,0.00,meteohub,2013-04-28 10:22:00,
2013-04-28 05:27:00,51.1,45.1,29.91,West,271,8.0,12.0,80,0.00,,,0.00,meteohub,2013-04-28 10:27:00,
2013-04-28 05:32:00,50.9,45.0,29.91,WSW,248,6.0,11.0,80,0.00,,,0.00,meteohub,2013-04-28 10:32:00,
2013-04-28 05:37:00,50.7,44.8,29.91,West,268,6.0,11.0,80,0.00,,,0.00,meteohub,2013-04-28 10:37:00,
2013-04-28 05:42:00,50.7,44.8,29.91,West,276,10.0,11.0,80,0.00,,,0.00,meteohub,2013-04-28 10:42:00,
2013-04-28 05:47:00,50.7,44.8,29.91,West,259,5.0,11.0,80,0.00,,,0.00,meteohub,2013-04-28 10:47:00,
2013-04-28 05:52:00,50.5,45.0,29.91,West,277,6.0,12.0,81,0.00,,,0.00,meteohub,2013-04-28 10:52:00,
2013-04-28 05:57:00,50.5,45.0,29.91,WSW,241,3.0,12.0,81,0.00,,,0.00,meteohub,2013-04-28 10:57:00,
2013-04-28 06:02:00,50.4,44.8,29.91,WSW,242,6.0,12.0,81,0.00,,,0.00,meteohub,2013-04-28 11:02:00,
2013-04-28 06:07:00,50.4,44.8,29.91,West,260,6.0,12.0,81,0.00,,,0.00,meteohub,2013-04-28 11:07:00,
2013-04-28 06:12:00,50.2,44.6,29.91,SW,227,9.0,12.0,81,0.00,,,0.00,meteohub,2013-04-28 11:12:00,
2013-04-28 06:17:00,50.2,44.6,29.90,WSW,245,0.0,11.0,81,0.00,,,0.00,meteohub,2013-04-28 11:17:00,
2013-04-28 06:22:00,50.2,44.6,29.90,WSW,249,3.0,9.0,81,0.00,,,0.00,meteohub,2013-04-28 11:22:00,
2013-04-28 06:27:00,49.8,44.6,29.90,WSW,250,0.0,9.0,82,0.00,,,0.00,meteohub,2013-04-28 11:27:00,
2013-04-28 06:32:00,49.8,44.6,29.89,WSW,247,3.0,9.0,82,0.00,,,0.00,meteohub,2013-04-28 11:32:00,
2013-04-28 06:37:00,49.6,44.4,29.89,WSW,247,3.0,9.0,82,0.00,,,0.00,meteohub,2013-04-28 11:37:00,
2013-04-28 06:42:00,49.6,44.4,29.89,WSW,256,2.0,6.0,82,0.00,,,0.00,meteohub,2013-04-28 11:42:00,
2013-04-28 06:47:00,49.6,44.8,29.89,WSW,246,2.0,6.0,83,0.00,,,0.00,meteohub,2013-04-28 11:47:00,
2013-04-28 06:52:00,49.8,44.8,29.89,WSW,246,2.0,6.0,83,0.00,,,0.00,meteohub,2013-04-28 11:52:00,
2013-04-28 06:57:00,50.2,45.0,29.89,WSW,244,3.0,6.0,82,0.00,,,0.00,meteohub,2013-04-28 11:57:00,
2013-04-28 07:02:00,50.4,45.1,29.89,SW,236,5.0,9.0,82,0.00,,,0.00,meteohub,2013-04-28 12:02:00,
2013-04-28 07:07:00,50.5,45.3,29.89,WSW,240,4.0,10.0,82,0.00,,,0.00,meteohub,2013-04-28 12:07:00,
2013-04-28 07:12:00,50.7,45.5,29.88,WSW,250,9.0,10.0,82,0.00,,,0.00,meteohub,2013-04-28 12:12:00,
2013-04-28 07:17:00,51.1,45.5,29.88,WSW,248,13.0,13.0,81,0.00,,,0.00,meteohub,2013-04-28 12:17:00,
2013-04-28 07:22:00,51.3,45.7,29.88,West,264,5.0,13.0,81,0.00,,,0.00,meteohub,2013-04-28 12:22:00,
2013-04-28 07:27:00,51.4,45.9,29.88,WSW,237,5.0,14.0,81,0.00,,,0.00,meteohub,2013-04-28 12:27:00,
2013-04-28 07:32:00,51.8,45.9,29.88,SW,230,7.0,14.0,80,0.00,,,0.00,meteohub,2013-04-28 12:32:00,
2013-04-28 07:37:00,52.2,45.9,29.88,West,259,4.0,12.0,79,0.00,,,0.00,meteohub,2013-04-28 12:37:00,
2013-04-28 07:42:00,52.3,46.0,29.88,WSW,254,10.0,13.0,79,0.00,,,0.00,meteohub,2013-04-28 12:42:00,
2013-04-28 07:47:00,52.7,46.4,29.88,West,278,9.0,13.0,79,0.00,,,0.00,meteohub,2013-04-28 12:47:00,
2013-04-28 07:52:00,53.1,46.8,29.88,WSW,246,9.0,13.0,79,0.00,,,0.00,meteohub,2013-04-28 12:52:00,
2013-04-28 07:57:00,53.4,46.8,29.88,West,271,11.0,14.0,78,0.00,,,0.00,meteohub,2013-04-28 12:57:00,
2013-04-28 08:02:00,53.8,46.8,29.88,WSW,238,9.0,14.0,77,0.00,,,0.00,meteohub,2013-04-28 13:02:00,
2013-04-28 08:07:00,54.1,47.1,29.88,West,271,7.0,14.0,77,0.00,,,0.00,meteohub,2013-04-28 13:07:00,
2013-04-28 08:12:00,54.7,47.3,29.87,WNW,284,9.0,14.0,76,0.00,,,0.00,meteohub,2013-04-28 13:12:00,
2013-04-28 08:17:00,55.2,47.5,29.87,WSW,250,12.0,14.0,75,0.00,,,0.00,meteohub,2013-04-28 13:17:00,
2013-04-28 08:22:00,55.8,47.7,29.87,WSW,242,6.0,14.0,74,0.00,,,0.00,meteohub,2013-04-28 13:22:00,
2013-04-28 08:27:00,56.3,47.8,29.87,WSW,248,8.0,18.0,73,0.00,,,0.00,meteohub,2013-04-28 13:27:00,
2013-04-28 08:32:00,56.7,47.7,29.87,West,272,6.0,19.0,72,0.00,,,0.00,meteohub,2013-04-28 13:32:00,
2013-04-28 08:37:00,56.8,47.8,29.87,SW,217,6.0,19.0,72,0.00,,,0.00,meteohub,2013-04-28 13:37:00,
2013-04-28 08:42:00,56.8,47.8,29.87,West,272,9.0,19.0,72,0.00,,,0.00,meteohub,2013-04-28 13:42:00,
2013-04-28 08:47:00,56.8,47.8,29.87,West,275,5.0,17.0,72,0.00,,,0.00,meteohub,2013-04-28 13:47:00,
2013-04-28 08:52:00,56.8,47.8,29.87,West,273,1.0,17.0,72,0.00,,,0.00,meteohub,2013-04-28 13:52:00,
2013-04-28 08:57:00,57.2,48.2,29.87,West,275,11.0,14.0,72,0.00,,,0.00,meteohub,2013-04-28 13:57:00,
2013-04-28 09:02:00,57.9,48.2,29.86,West,274,11.0,14.0,70,0.00,,,0.00,meteohub,2013-04-28 14:02:00,
2013-04-28 09:07:00,58.8,48.7,29.86,SW,221,9.0,15.0,69,0.00,,,0.00,meteohub,2013-04-28 14:07:00,
2013-04-28 09:12:00,59.0,48.4,29.85,WSW,238,12.0,19.0,68,0.00,,,0.00,meteohub,2013-04-28 14:12:00,
2013-04-28 09:17:00,59.4,48.4,29.85,WNW,288,11.0,19.0,67,0.00,,,0.00,meteohub,2013-04-28 14:17:00,
2013-04-28 09:22:00,60.1,49.1,29.85,WSW,238,2.0,20.0,67,0.00,,,0.00,meteohub,2013-04-28 14:22:00,
2013-04-28 09:27:00,60.6,48.7,29.85,SW,228,9.0,20.0,65,0.00,,,0.00,meteohub,2013-04-28 14:27:00,
2013-04-28 09:32:00,60.8,48.9,29.85,WNW,291,16.0,20.0,65,0.00,,,0.00,meteohub,2013-04-28 14:32:00,
2013-04-28 09:37:00,61.2,49.3,29.85,West,263,7.0,20.0,65,0.00,,,0.00,meteohub,2013-04-28 14:37:00,
2013-04-28 09:42:00,61.5,48.4,29.84,WSW,246,7.0,20.0,62,0.00,,,0.00,meteohub,2013-04-28 14:42:00,
2013-04-28 09:47:00,62.1,48.9,29.84,West,277,8.0,19.0,62,0.00,,,0.00,meteohub,2013-04-28 14:47:00,
2013-04-28 09:52:00,62.4,48.7,29.84,WNW,287,10.0,19.0,61,0.00,,,0.00,meteohub,2013-04-28 14:52:00,
2013-04-28 09:57:00,62.8,49.1,29.83,WSW,242,9.0,18.0,61,0.00,,,0.00,meteohub,2013-04-28 14:57:00,
2013-04-28 10:02:00,63.1,49.1,29.83,West,269,7.0,17.0,60,0.00,,,0.00,meteohub,2013-04-28 15:02:00,
2013-04-28 10:07:00,63.3,49.6,29.83,West,264,7.0,19.0,61,0.00,,,0.00,meteohub,2013-04-28 15:07:00,
2013-04-28 10:12:00,63.9,49.3,29.83,West,277,19.0,19.0,59,0.00,,,0.00,meteohub,2013-04-28 15:12:00,
2013-04-28 10:17:00,64.6,48.9,29.82,WSW,252,8.0,21.0,57,0.00,,,0.00,meteohub,2013-04-28 15:17:00,
2013-04-28 10:22:00,64.8,49.1,29.82,WNW,287,7.0,21.0,57,0.00,,,0.00,meteohub,2013-04-28 15:22:00,
2013-04-28 10:27:00,65.7,49.1,29.83,WNW,286,18.0,22.0,55,0.00,,,0.00,meteohub,2013-04-28 15:27:00,
2013-04-28 10:32:00,66.4,49.6,29.82,WSW,257,8.0,22.0,55,0.00,,,0.00,meteohub,2013-04-28 15:32:00,
2013-04-28 10:37:00,66.6,48.9,29.82,WSW,251,15.0,22.0,53,0.00,,,0.00,meteohub,2013-04-28 15:37:00,
2013-04-28 10:42:00,66.9,49.8,29.82,West,279,13.0,22.0,54,0.00,,,0.00,meteohub,2013-04-28 15:42:00,
2013-04-28 10:47:00,67.6,49.5,29.82,West,279,12.0,22.0,52,0.00,,,0.00,meteohub,2013-04-28 15:47:00,
2013-04-28 10:52:00,68.4,49.5,29.81,West,280,10.0,26.0,51,0.00,,,0.00,meteohub,2013-04-28 15:52:00,
2013-04-28 10:57:00,69.1,48.0,29.82,SW,234,12.0,26.0,47,0.00,,,0.00,meteohub,2013-04-28 15:57:00,
2013-04-28 11:02:00,68.5,48.0,29.82,WSW,240,13.0,26.0,48,0.00,,,0.00,meteohub,2013-04-28 16:02:00,
2013-04-28 11:07:00,68.5,48.0,29.81,SW,232,15.0,25.0,48,0.00,,,0.00,meteohub,2013-04-28 16:07:00,
2013-04-28 11:12:00,69.1,48.6,29.81,WNW,290,13.0,23.0,48,0.00,,,0.00,meteohub,2013-04-28 16:12:00,
2013-04-28 11:17:00,69.4,48.4,29.81,WSW,252,14.0,22.0,47,0.00,,,0.00,meteohub,2013-04-28 16:17:00,
2013-04-28 11:22:00,69.8,48.7,29.81,West,269,15.0,24.0,47,0.00,,,0.00,meteohub,2013-04-28 16:22:00,
2013-04-28 11:27:00,70.5,48.2,29.81,WSW,251,10.0,29.0,45,0.00,,,0.00,meteohub,2013-04-28 16:27:00,
2013-04-28 11:32:00,71.1,48.0,29.81,West,267,18.0,29.0,44,0.00,,,0.00,meteohub,2013-04-28 16:32:00,
2013-04-28 11:37:00,71.2,48.7,29.80,West,277,12.0,31.0,45,0.00,,,0.00,meteohub,2013-04-28 16:37:00,
2013-04-28 11:42:00,71.4,48.4,29.80,WNW,292,15.0,31.0,44,0.00,,,0.00,meteohub,2013-04-28 16:42:00,
2013-04-28 11:47:00,71.6,47.8,29.80,West,259,25.0,26.0,43,0.00,,,0.00,meteohub,2013-04-28 16:47:00,
2013-04-28 11:52:00,70.9,48.6,29.80,SW,221,10.0,25.0,45,0.00,,,0.00,meteohub,2013-04-28 16:52:00,
2013-04-28 11:57:00,71.2,49.5,29.80,SW,234,7.0,25.0,46,0.00,,,0.00,meteohub,2013-04-28 16:57:00,
2013-04-28 12:02:00,71.8,49.3,29.80,WSW,258,5.0,25.0,45,0.00,,,0.00,meteohub,2013-04-28 17:02:00,
2013-04-28 12:07:00,72.0,49.5,29.80,WSW,251,12.0,27.0,45,0.00,,,0.00,meteohub,2013-04-28 17:07:00,
2013-04-28 12:12:00,72.0,49.5,29.79,West,259,19.0,27.0,45,0.00,,,0.00,meteohub,2013-04-28 17:12:00,
2013-04-28 12:17:00,72.5,50.0,29.79,WNW,288,12.0,25.0,45,0.00,,,0.00,meteohub,2013-04-28 17:17:00,
2013-04-28 12:22:00,73.4,50.2,29.80,West,259,13.0,25.0,44,0.00,,,0.00,meteohub,2013-04-28 17:22:00,
2013-04-28 12:27:00,73.2,50.0,29.80,WNW,288,8.0,23.0,44,0.00,,,0.00,meteohub,2013-04-28 17:27:00,
2013-04-28 12:32:00,73.9,50.0,29.79,WNW,290,14.0,23.0,43,0.00,,,0.00,meteohub,2013-04-28 17:32:00,
2013-04-28 12:37:00,73.8,49.3,29.78,SW,225,21.0,25.0,42,0.00,,,0.00,meteohub,2013-04-28 17:37:00,
2013-04-28 12:42:00,73.8,49.8,29.79,West,267,14.0,25.0,43,0.00,,,0.00,meteohub,2013-04-28 17:42:00,
2013-04-28 12:47:00,74.8,50.2,29.78,WNW,288,11.0,25.0,42,0.00,,,0.00,meteohub,2013-04-28 17:47:00,
2013-04-28 12:52:00,75.0,49.6,29.78,SW,235,15.0,23.0,41,0.00,,,0.00,meteohub,2013-04-28 17:52:00,
2013-04-28 12:57:00,73.8,49.3,29.78,West,268,21.0,28.0,42,0.00,,,0.00,meteohub,2013-04-28 17:57:00,
2013-04-28 13:02:00,73.8,49.8,29.78,West,263,14.0,28.0,43,0.00,,,0.00,meteohub,2013-04-28 18:02:00,
2013-04-28 13:07:00,73.9,50.0,29.78,West,269,10.0,28.0,43,0.00,,,0.00,meteohub,2013-04-28 18:07:00,
2013-04-28 13:12:00,74.3,50.4,29.77,SW,223,11.0,24.0,43,0.00,,,0.00,meteohub,2013-04-28 18:12:00,
2013-04-28 13:17:00,74.8,50.2,29.77,SW,225,12.0,24.0,42,0.00,,,0.00,meteohub,2013-04-28 18:17:00,
2013-04-28 13:22:00,74.8,50.2,29.77,West,259,8.0,23.0,42,0.00,,,0.00,meteohub,2013-04-28 18:22:00,
2013-04-28 13:27:00,75.6,50.9,29.77,West,267,14.0,23.0,42,0.00,,,0.00,meteohub,2013-04-28 18:27:00,
2013-04-28 13:32:00,75.4,50.0,29.77,West,260,15.0,23.0,41,0.00,,,0.00,meteohub,2013-04-28 18:32:00,
2013-04-28 13:37:00,74.8,50.2,29.77,WNW,284,12.0,27.0,42,0.00,,,0.00,meteohub,2013-04-28 18:37:00,
2013-04-28 13:42:00,75.6,50.9,29.76,West,269,21.0,27.0,42,0.00,,,0.00,meteohub,2013-04-28 18:42:00,
2013-04-28 13:47:00,75.9,51.3,29.76,WNW,292,14.0,24.0,42,0.00,,,0.00,meteohub,2013-04-28 18:47:00,
2013-04-28 13:52:00,76.5,51.1,29.76,WSW,249,15.0,22.0,41,0.00,,,0.00,meteohub,2013-04-28 18:52:00,
2013-04-28 13:57:00,76.1,51.3,29.76,WNW,288,18.0,22.0,42,0.00,,,0.00,meteohub,2013-04-28 18:57:00,
2013-04-28 14:02:00,75.9,50.5,29.76,WSW,257,2.0,22.0,41,0.00,,,0.00,meteohub,2013-04-28 19:02:00,
2013-04-28 14:07:00,76.5,50.4,29.76,WNW,286,10.0,21.0,40,0.00,,,0.00,meteohub,2013-04-28 19:07:00,
2013-04-28 14:12:00,77.4,50.5,29.76,WNW,296,10.0,21.0,39,0.00,,,0.00,meteohub,2013-04-28 19:12:00,
2013-04-28 14:17:00,77.7,50.0,29.76,West,271,7.0,19.0,38,0.00,,,0.00,meteohub,2013-04-28 19:17:00,
2013-04-28 14:22:00,77.5,50.0,29.76,WSW,242,3.0,20.0,38,0.00,,,0.00,meteohub,2013-04-28 19:22:00,
2013-04-28 14:27:00,77.7,49.5,29.75,West,268,15.0,20.0,37,0.00,,,0.00,meteohub,2013-04-28 19:27:00,
2013-04-28 14:32:00,78.3,49.8,29.75,West,280,12.0,22.0,37,0.00,,,0.00,meteohub,2013-04-28 19:32:00,
2013-04-28 14:37:00,78.6,50.2,29.75,WNW,290,5.0,22.0,37,0.00,,,0.00,meteohub,2013-04-28 19:37:00,
2013-04-28 14:42:00,78.6,49.5,29.75,WNW,282,10.0,21.0,36,0.00,,,0.00,meteohub,2013-04-28 19:42:00,
2013-04-28 14:47:00,78.3,49.1,29.75,WSW,245,5.0,22.0,36,0.00,,,0.00,meteohub,2013-04-28 19:47:00,
2013-04-28 14:52:00,78.6,49.5,29.74,WNW,300,16.0,22.0,36,0.00,,,0.00,meteohub,2013-04-28 19:52:00,
2013-04-28 14:57:00,79.3,49.3,29.74,WSW,256,11.0,22.0,35,0.00,,,0.00,meteohub,2013-04-28 19:57:00,
2013-04-28 15:02:00,79.5,49.5,29.74,West,265,14.0,20.0,35,0.00,,,0.00,meteohub,2013-04-28 20:02:00,
2013-04-28 15:07:00,80.1,50.0,29.74,WNW,287,9.0,20.0,35,0.00,,,0.00,meteohub,2013-04-28 20:07:00,
2013-04-28 15:12:00,80.4,49.5,29.74,West,264,9.0,20.0,34,0.00,,,0.00,meteohub,2013-04-28 20:12:00,
2013-04-28 15:17:00,80.6,49.6,29.73,West,265,16.0,20.0,34,0.00,,,0.00,meteohub,2013-04-28 20:17:00,
2013-04-28 15:22:00,80.6,49.6,29.73,West,263,10.0,21.0,34,0.00,,,0.00,meteohub,2013-04-28 20:22:00,
2013-04-28 15:27:00,81.1,50.2,29.73,West,280,5.0,21.0,34,0.00,,,0.00,meteohub,2013-04-28 20:27:00,
2013-04-28 15:32:00,81.5,49.6,29.73,WNW,293,16.0,21.0,33,0.00,,,0.00,meteohub,2013-04-28 20:32:00,
2013-04-28 15:37:00,81.3,49.5,29.73,WNW,285,16.0,21.0,33,0.00,,,0.00,meteohub,2013-04-28 20:37:00,
2013-04-28 15:42:00,81.1,49.3,29.73,NW,323,5.0,23.0,33,0.00,,,0.00,meteohub,2013-04-28 20:42:00,
2013-04-28 15:47:00,81.1,50.2,29.73,WNW,289,11.0,23.0,34,0.00,,,0.00,meteohub,2013-04-28 20:47:00,
2013-04-28 15:52:00,80.2,49.3,29.73,WSW,253,14.0,23.0,34,0.00,,,0.00,meteohub,2013-04-28 20:52:00,
2013-04-28 15:57:00,79.2,49.1,29.72,West,260,4.0,17.0,35,0.00,,,0.00,meteohub,2013-04-28 20:57:00,
2013-04-28 16:02:00,79.3,50.0,29.72,WNW,288,11.0,18.0,36,0.00,,,0.00,meteohub,2013-04-28 21:02:00,
2013-04-28 16:07:00,80.2,50.2,29.72,WSW,247,5.0,18.0,35,0.00,,,0.00,meteohub,2013-04-28 21:07:00,
2013-04-28 16:12:00,80.8,49.8,29.71,WSW,248,6.0,19.0,34,0.00,,,0.00,meteohub,2013-04-28 21:12:00,
2013-04-28 16:17:00,81.1,50.2,29.71,WNW,284,15.0,19.0,34,0.00,,,0.00,meteohub,2013-04-28 21:17:00,
2013-04-28 16:22:00,81.0,50.0,29.71,WSW,254,6.0,21.0,34,0.00,,,0.00,meteohub,2013-04-28 21:22:00,
2013-04-28 16:27:00,81.1,50.2,29.71,West,260,13.0,21.0,34,0.00,,,0.00,meteohub,2013-04-28 21:27:00,
2013-04-28 16:32:00,81.1,50.2,29.71,West,272,14.0,21.0,34,0.00,,,0.00,meteohub,2013-04-28 21:32:00,
2013-04-28 16:37:00,80.8,50.5,29.70,SW,236,5.0,19.0,35,0.00,,,0.00,meteohub,2013-04-28 21:37:00,
2013-04-28 16:42:00,80.4,49.5,29.70,West,264,10.0,19.0,34,0.00,,,0.00,meteohub,2013-04-28 21:42:00,
2013-04-28 16:47:00,80.1,49.1,29.70,West,264,15.0,19.0,34,0.00,,,0.00,meteohub,2013-04-28 21:47:00,
2013-04-28 16:52:00,80.1,50.0,29.69,West,263,9.0,19.0,35,0.00,,,0.00,meteohub,2013-04-28 21:52:00,
2013-04-28 16:57:00,80.8,49.8,29.69,WSW,251,13.0,17.0,34,0.00,,,0.00,meteohub,2013-04-28 21:57:00,
2013-04-28 17:02:00,81.3,50.2,29.69,West,263,6.0,16.0,34,0.00,,,0.00,meteohub,2013-04-28 22:02:00,
2013-04-28 17:07:00,81.3,49.5,29.68,WSW,244,9.0,17.0,33,0.00,,,0.00,meteohub,2013-04-28 22:07:00,
2013-04-28 17:12:00,80.6,48.9,29.68,WNW,293,7.0,17.0,33,0.00,,,0.00,meteohub,2013-04-28 22:12:00,
2013-04-28 17:17:00,80.2,48.6,29.68,West,263,5.0,17.0,33,0.00,,,0.00,meteohub,2013-04-28 22:17:00,
2013-04-28 17:22:00,79.9,48.9,29.68,West,277,6.0,17.0,34,0.00,,,0.00,meteohub,2013-04-28 22:22:00,
2013-04-28 17:27:00,79.5,48.7,29.68,West,273,5.0,17.0,34,0.00,,,0.00,meteohub,2013-04-28 22:27:00,
2013-04-28 17:32:00,79.5,49.5,29.68,West,259,7.0,16.0,35,0.00,,,0.00,meteohub,2013-04-28 22:32:00,
2013-04-28 17:37:00,79.5,48.7,29.68,WNW,288,6.0,18.0,34,0.00,,,0.00,meteohub,2013-04-28 22:37:00,
2013-04-28 17:42:00,79.0,47.5,29.68,West,259,6.0,19.0,33,0.00,,,0.00,meteohub,2013-04-28 22:42:00,
2013-04-28 17:47:00,78.6,48.7,29.68,West,273,11.0,19.0,35,0.00,,,0.00,meteohub,2013-04-28 22:47:00,
2013-04-28 17:52:00,78.3,49.1,29.69,NW,307,10.0,19.0,36,0.00,,,0.00,meteohub,2013-04-28 22:52:00,
2013-04-28 17:57:00,77.9,49.5,29.70,West,281,12.0,16.0,37,0.00,,,0.00,meteohub,2013-04-28 22:57:00,
2013-04-28 18:02:00,76.8,50.7,29.71,WNW,285,9.0,21.0,40,0.00,,,0.00,meteohub,2013-04-28 23:02:00,
2013-04-28 18:07:00,74.8,50.9,29.71,WSW,251,7.0,21.0,43,0.00,,,0.00,meteohub,2013-04-28 23:07:00,
2013-04-28 18:12:00,73.2,50.5,29.70,West,261,7.0,21.0,45,0.00,,,0.00,meteohub,2013-04-28 23:12:00,
2013-04-28 18:17:00,72.7,51.3,29.70,West,269,7.0,21.0,47,0.00,,,0.00,meteohub,2013-04-28 23:17:00,
2013-04-28 18:22:00,72.1,50.7,29.70,WSW,246,4.0,21.0,47,0.00,,,0.00,meteohub,2013-04-28 23:22:00,
2013-04-28 18:27:00,71.8,51.6,29.70,WSW,237,5.0,12.0,49,0.00,,,0.00,meteohub,2013-04-28 23:27:00,
2013-04-28 18:32:00,71.4,51.3,29.71,WSW,253,3.0,12.0,49,0.00,,,0.00,meteohub,2013-04-28 23:32:00,
2013-04-28 18:37:00,71.4,51.8,29.70,WSW,244,3.0,11.0,50,0.00,,,0.00,meteohub,2013-04-28 23:37:00,
2013-04-28 18:42:00,71.2,51.6,29.71,WSW,245,0.0,11.0,50,0.00,,,0.00,meteohub,2013-04-28 23:42:00,
2013-04-28 18:47:00,71.6,52.0,29.71,WSW,245,2.0,11.0,50,0.00,,,0.00,meteohub,2013-04-28 23:47:00,
2013-04-28 18:52:00,71.8,51.6,29.71,WSW,246,3.0,7.0,49,0.00,,,0.00,meteohub,2013-04-28 23:52:00,
2013-04-28 18:57:00,72.0,50.7,29.72,WSW,250,4.0,6.0,47,0.00,,,0.00,meteohub,2013-04-28 23:57:00,
2013-04-28 19:02:00,72.1,51.4,29.72,WSW,244,0.0,9.0,48,0.00,,,0.00,meteohub,2013-04-29 00:02:00,
2013-04-28 19:07:00,72.0,51.8,29.72,WSW,242,2.0,9.0,49,0.00,,,0.00,meteohub,2013-04-29 00:07:00,
2013-04-28 19:12:00,71.6,52.0,29.72,WSW,239,2.0,9.0,50,0.00,,,0.00,meteohub,2013-04-29 00:12:00,
2013-04-28 19:17:00,71.4,51.8,29.72,WSW,240,2.0,7.0,50,0.00,,,0.00,meteohub,2013-04-29 00:17:00,
2013-04-28 19:22:00,71.4,51.8,29.72,WSW,240,0.0,7.0,50,0.00,,,0.00,meteohub,2013-04-29 00:22:00,
2013-04-28 19:27:00,71.6,52.0,29.72,WSW,240,0.0,6.0,50,0.00,,,0.00,meteohub,2013-04-29 00:27:00,
2013-04-28 19:32:00,71.6,51.4,29.73,WSW,240,2.0,4.0,49,0.00,,,0.00,meteohub,2013-04-29 00:32:00,
2013-04-28 19:37:00,71.6,52.0,29.73,WSW,240,0.0,4.0,50,0.00,,,0.00,meteohub,2013-04-29 00:37:00,
2013-04-28 19:42:00,71.2,51.6,29.72,WSW,240,0.0,4.0,50,0.00,,,0.00,meteohub,2013-04-29 00:42:00,
2013-04-28 19:47:00,71.1,51.4,29.72,WSW,240,0.0,4.0,50,0.00,,,0.00,meteohub,2013-04-29 00:47:00,
2013-04-28 19:52:00,70.5,52.0,29.73,East,80,10.0,10.0,52,0.00,,,0.00,meteohub,2013-04-29 00:52:00,
2013-04-28 19:57:00,70.3,49.1,29.74,ENE,76,6.0,11.0,47,0.00,,,0.00,meteohub,2013-04-29 00:57:00,
2013-04-28 20:02:00,70.9,49.1,29.74,East,82,13.0,13.0,46,0.00,,,0.00,meteohub,2013-04-29 01:02:00,
2013-04-28 20:07:00,70.9,47.3,29.74,ENE,62,11.0,13.0,43,0.00,,,0.00,meteohub,2013-04-29 01:07:00,
2013-04-28 20:12:00,70.5,46.4,29.74,East,88,5.0,16.0,42,0.00,,,0.00,meteohub,2013-04-29 01:12:00,
2013-04-28 20:17:00,70.2,46.0,29.74,ENE,72,9.0,16.0,42,0.00,,,0.00,meteohub,2013-04-29 01:17:00,
2013-04-28 20:22:00,70.0,46.4,29.74,East,82,11.0,16.0,43,0.00,,,0.00,meteohub,2013-04-29 01:22:00,
2013-04-28 20:27:00,69.6,46.8,29.75,East,84,6.0,17.0,44,0.00,,,0.00,meteohub,2013-04-29 01:27:00,
2013-04-28 20:32:00,69.3,46.4,29.75,East,81,8.0,17.0,44,0.00,,,0.00,meteohub,2013-04-29 01:32:00,
2013-04-28 20:37:00,68.9,46.8,29.75,ENE,65,7.0,17.0,45,0.00,,,0.00,meteohub,2013-04-29 01:37:00,
2013-04-28 20:42:00,68.7,46.6,29.75,ENE,72,9.0,14.0,45,0.00,,,0.00,meteohub,2013-04-29 01:42:00,
2013-04-28 20:47:00,68.5,46.9,29.76,ENE,61,5.0,14.0,46,0.00,,,0.00,meteohub,2013-04-29 01:47:00,
2013-04-28 20:52:00,68.4,46.8,29.77,ENE,75,6.0,14.0,46,0.00,,,0.00,meteohub,2013-04-29 01:52:00,
2013-04-28 20:57:00,68.4,46.8,29.77,ENE,61,7.0,13.0,46,0.00,,,0.00,meteohub,2013-04-29 01:57:00,
2013-04-28 21:02:00,68.4,46.8,29.79,ENE,66,15.0,16.0,46,0.00,,,0.00,meteohub,2013-04-29 02:02:00,
2013-04-28 21:07:00,68.4,46.8,29.79,ENE,69,9.0,16.0,46,0.00,,,0.00,meteohub,2013-04-29 02:07:00,
2013-04-28 21:12:00,67.8,48.6,29.81,NE,55,7.0,16.0,50,0.00,,,0.00,meteohub,2013-04-29 02:12:00,
2013-04-28 21:17:00,66.6,48.9,29.81,NNE,32,12.0,16.0,53,0.00,,,0.00,meteohub,2013-04-29 02:17:00,
2013-04-28 21:22:00,64.6,50.0,29.81,East,80,8.0,19.0,59,0.01,,,0.01,meteohub,2013-04-29 02:22:00,
2013-04-28 21:27:00,63.0,51.1,29.81,East,101,5.0,19.0,65,0.05,,,0.05,meteohub,2013-04-29 02:27:00,
2013-04-28 21:32:00,62.1,50.2,29.80,ENE,60,9.0,18.0,65,0.05,,,0.05,meteohub,2013-04-29 02:32:00,
2013-04-28 21:37:00,61.9,50.0,29.79,East,96,7.0,16.0,65,0.05,,,0.05,meteohub,2013-04-29 02:37:00,
2013-04-28 21:42:00,61.7,50.7,29.79,ENE,63,5.0,16.0,67,0.05,,,0.05,meteohub,2013-04-29 02:42:00,
2013-04-28 21:47:00,61.3,50.7,29.79,East,99,5.0,15.0,68,0.05,,,0.05,meteohub,2013-04-29 02:47:00,
2013-04-28 21:52:00,61.0,50.7,29.80,East,89,4.0,11.0,69,0.05,,,0.05,meteohub,2013-04-29 02:52:00,
2013-04-28 21:57:00,61.0,50.4,29.80,ENE,76,4.0,10.0,68,0.05,,,0.05,meteohub,2013-04-29 02:57:00,
2013-04-28 22:02:00,61.0,50.7,29.81,ENE,59,2.0,10.0,69,0.05,,,0.05,meteohub,2013-04-29 03:02:00,
2013-04-28 22:07:00,60.6,50.4,29.82,ENE,59,2.0,10.0,69,0.05,,,0.05,meteohub,2013-04-29 03:07:00,
2013-04-28 22:12:00,60.4,50.5,29.81,ENE,59,0.0,9.0,70,0.05,,,0.05,meteohub,2013-04-29 03:12:00,
2013-04-28 22:17:00,60.4,50.5,29.81,ENE,59,0.0,6.0,70,0.04,,,0.05,meteohub,2013-04-29 03:17:00,
2013-04-28 22:22:00,60.3,50.4,29.81,ENE,59,0.0,5.0,70,0.02,,,0.05,meteohub,2013-04-29 03:22:00,
2013-04-28 22:27:00,60.1,51.4,29.81,ENE,59,0.0,3.0,73,0.00,,,0.05,meteohub,2013-04-29 03:27:00,
2013-04-28 22:32:00,60.1,50.7,29.81,ESE,114,0.0,4.0,71,0.00,,,0.05,meteohub,2013-04-29 03:32:00,
2013-04-28 22:37:00,60.3,51.3,29.81,ESE,118,0.0,5.0,72,0.00,,,0.05,meteohub,2013-04-29 03:37:00,
2013-04-28 22:42:00,59.5,51.3,29.81,ESE,119,1.0,5.0,74,0.01,,,0.06,meteohub,2013-04-29 03:42:00,
2013-04-28 22:47:00,59.0,50.7,29.80,WSW,249,4.0,6.0,74,0.01,,,0.06,meteohub,2013-04-29 03:47:00,
2013-04-28 22:52:00,59.0,51.1,29.80,SW,230,4.0,8.0,75,0.01,,,0.06,meteohub,2013-04-29 03:52:00,
2013-04-28 22:57:00,59.0,51.1,29.80,SW,225,0.0,8.0,75,0.01,,,0.06,meteohub,2013-04-29 03:57:00,
2013-04-28 23:01:00,59.0,51.1,29.80,SW,225,0.0,7.0,75,0.01,,,0.06,meteohub,2013-04-29 04:01:00,
2013-04-28 23:06:00,58.6,51.1,29.79,SW,225,0.0,6.0,76,0.01,,,0.06,meteohub,2013-04-29 04:06:00,
2013-04-28 23:11:00,58.3,51.1,29.80,SW,225,1.0,4.0,77,0.01,,,0.06,meteohub,2013-04-29 04:11:00,
2013-04-28 23:16:00,57.7,50.9,29.79,SW,225,3.0,3.0,78,0.01,,,0.06,meteohub,2013-04-29 04:16:00,
2013-04-28 23:21:00,57.9,51.1,29.79,SW,225,0.0,3.0,78,0.01,,,0.06,meteohub,2013-04-29 04:21:00,
2013-04-28 23:26:00,57.7,51.3,29.80,SW,225,0.0,3.0,79,0.01,,,0.06,meteohub,2013-04-29 04:26:00,
2013-04-28 23:31:00,57.6,51.4,29.80,SW,225,4.0,4.0,80,0.01,,,0.06,meteohub,2013-04-29 04:31:00,
2013-04-28 23:36:00,57.4,51.3,29.80,SSW,213,1.0,5.0,80,0.00,,,0.06,meteohub,2013-04-29 04:36:00,
2013-04-28 23:41:00,57.4,51.3,29.80,SSW,213,0.0,5.0,80,0.00,,,0.06,meteohub,2013-04-29 04:41:00,
2013-04-28 23:46:00,57.2,51.1,29.80,SSW,213,0.0,5.0,80,0.00,,,0.06,meteohub,2013-04-29 04:46:00,
2013-04-28 23:51:00,57.0,50.9,29.80,SSW,213,0.0,3.0,80,0.00,,,0.06,meteohub,2013-04-29 04:51:00,
2013-04-28 23:56:00,57.0,50.9,29.79,SSW,213,0.0,1.0,80,0.00,,,0.06,meteohub,2013-04-29 04:56:00,